Time,TemperatureF,DewpointF,PressureIn,WindDirection,WindDirectionDegrees,WindSpeedMPH,WindSpeedGustMPH,Humidity,HourlyPrecipIn,Conditions,Clouds,dailyrainin,SoftwareType,DateUTC
2013-10-25 00:00:00,31.4,27.0,30.52,NE,55,0.0,0.0,88,0.00,,,0.00,TxWx,2013-10-25 05:00:00,
2013-10-25 00:05:00,31.4,27.0,30.52,NE,55,0.0,0.0,88,0.00,,,0.00,TxWx,2013-10-25 05:05:00,
2013-10-25 00:11:00,31.3,27.0,30.52,NE,55,0.0,0.0,88,0.00,,,0.00,TxWx,2013-10-25 05:11:00,
2013-10-25 00:16:00,31.2,27.0,30.52,NE,55,0.0,0.0,89,0.00,,,0.00,TxWx,2013-10-25 05:16:00,
2013-10-25 00:21:00,31.2,27.0,30.52,NE,55,0.0,0.0,89,0.00,,,0.00,TxWx,2013-10-25 05:21:00,
2013-10-25 00:26:00,31.2,27.0,30.53,NE,55,0.0,0.0,89,0.00,,,0.00,TxWx,2013-10-25 05:26:00,
2013-10-25 00:31:00,31.1,27.0,30.53,NNE,32,0.0,0.0,89,0.00,,,0.00,TxWx,2013-10-25 05:31:00,
2013-10-25 00:36:00,30.9,27.0,30.53,NNE,32,0.0,0.0,89,0.00,,,0.00,TxWx,2013-10-25 05:36:00,
2013-10-25 00:41:00,30.9,27.0,30.53,NNE,32,0.0,0.0,89,0.00,,,0.00,TxWx,2013-10-25 05:41:00,
2013-10-25 00:46:00,30.8,27.0,30.53,North,10,0.0,0.0,89,0.00,,,0.00,TxWx,2013-10-25 05:46:00,
2013-10-25 00:51:00,30.7,27.0,30.53,NNE,32,0.0,0.0,90,0.00,,,0.00,TxWx,2013-10-25 05:51:00,
2013-10-25 00:56:00,30.6,27.0,30.53,NE,55,0.0,0.0,89,0.00,,,0.00,TxWx,2013-10-25 05:56:00,
2013-10-25 01:01:00,30.6,27.0,30.53,NE,55,0.0,0.0,90,0.00,,,0.00,TxWx,2013-10-25 06:01:00,
2013-10-25 01:06:00,30.5,27.0,30.53,NE,55,0.0,0.0,90,0.00,,,0.00,TxWx,2013-10-25 06:06:00,
2013-10-25 01:11:00,30.4,26.0,30.53,NE,55,0.0,0.0,90,0.00,,,0.00,TxWx,2013-10-25 06:11:00,
2013-10-25 01:16:00,30.3,26.0,30.53,NE,55,0.0,0.0,90,0.00,,,0.00,TxWx,2013-10-25 06:16:00,
2013-10-25 01:21:00,30.3,26.0,30.54,NE,55,0.0,0.0,90,0.00,,,0.00,TxWx,2013-10-25 06:21:00,
2013-10-25 01:26:00,30.2,27.0,30.54,NE,55,0.0,0.0,91,0.00,,,0.00,TxWx,2013-10-25 06:26:00,
2013-10-25 01:31:00,30.2,27.0,30.53,NNE,32,0.0,0.0,91,0.00,,,0.00,TxWx,2013-10-25 06:31:00,
2013-10-25 01:36:00,30.2,27.0,30.53,NE,55,0.0,0.0,91,0.00,,,0.00,TxWx,2013-10-25 06:36:00,
2013-10-25 01:41:00,30.1,27.0,30.53,NE,55,0.0,0.0,91,0.00,,,0.00,TxWx,2013-10-25 06:41:00,
2013-10-25 01:46:00,30.0,27.0,30.53,NNE,32,0.0,0.0,91,0.00,,,0.00,TxWx,2013-10-25 06:46:00,
2013-10-25 01:51:00,29.8,27.0,30.53,NNE,32,0.0,0.0,91,0.00,,,0.00,TxWx,2013-10-25 06:51:00,
2013-10-25 01:57:00,29.7,27.0,30.53,NNE,32,0.0,0.0,91,0.00,,,0.00,TxWx,2013-10-25 06:57:00,
2013-10-25 02:02:00,29.5,27.0,30.53,NE,55,0.0,0.0,92,0.00,,,0.00,TxWx,2013-10-25 07:02:00,
2013-10-25 02:07:00,29.5,27.0,30.54,NE,55,0.0,0.0,92,0.00,,,0.00,TxWx,2013-10-25 07:07:00,
2013-10-25 02:12:00,29.5,26.0,30.54,NE,55,0.0,0.0,92,0.00,,,0.00,TxWx,2013-10-25 07:12:00,
2013-10-25 02:17:00,29.5,26.0,30.53,NE,55,0.0,0.0,92,0.00,,,0.00,TxWx,2013-10-25 07:17:00,
2013-10-25 02:22:00,29.5,26.0,30.53,NE,55,0.0,0.0,92,0.00,,,0.00,TxWx,2013-10-25 07:22:00,
2013-10-25 02:27:00,29.5,26.0,30.53,ENE,77,0.0,0.0,92,0.00,,,0.00,TxWx,2013-10-25 07:27:00,
2013-10-25 02:32:00,29.4,26.0,30.53,WNW,302,0.0,0.0,92,0.00,,,0.00,TxWx,2013-10-25 07:32:00,
2013-10-25 02:37:00,29.3,26.0,30.53,NE,55,0.0,0.0,92,0.00,,,0.00,TxWx,2013-10-25 07:37:00,
2013-10-25 02:42:00,29.2,26.0,30.54,NE,55,0.0,0.0,93,0.00,,,0.00,TxWx,2013-10-25 07:42:00,
2013-10-25 02:47:00,29.2,26.0,30.54,NNE,32,0.0,0.0,93,0.00,,,0.00,TxWx,2013-10-25 07:47:00,
2013-10-25 02:52:00,29.1,26.0,30.54,NNE,32,0.0,0.0,93,0.00,,,0.00,TxWx,2013-10-25 07:52:00,
2013-10-25 02:57:00,29.1,26.0,30.54,NE,55,0.0,0.0,93,0.00,,,0.00,TxWx,2013-10-25 07:57:00,
2013-10-25 03:02:00,29.1,26.0,30.54,NNE,32,0.0,0.0,93,0.00,,,0.00,TxWx,2013-10-25 08:02:00,
2013-10-25 03:07:00,29.1,26.0,30.54,NNE,32,0.0,0.0,93,0.00,,,0.00,TxWx,2013-10-25 08:07:00,
2013-10-25 03:12:00,29.0,26.0,30.54,NNE,32,0.0,0.0,93,0.00,,,0.00,TxWx,2013-10-25 08:12:00,
2013-10-25 03:17:00,28.9,26.0,30.54,NNE,32,0.0,0.0,93,0.00,,,0.00,TxWx,2013-10-25 08:17:00,
2013-10-25 03:22:00,28.9,26.0,30.53,NNE,32,0.0,0.0,93,0.00,,,0.00,TxWx,2013-10-25 08:22:00,
2013-10-25 03:27:00,28.9,26.0,30.53,NNE,32,0.0,0.0,93,0.00,,,0.00,TxWx,2013-10-25 08:27:00,
2013-10-25 03:32:00,28.9,26.0,30.53,NNE,32,0.0,0.0,93,0.00,,,0.00,TxWx,2013-10-25 08:32:00,
2013-10-25 03:37:00,28.8,26.0,30.52,NNE,32,0.0,0.0,93,0.00,,,0.00,TxWx,2013-10-25 08:37:00,
2013-10-25 03:42:00,28.8,26.0,30.52,NNE,32,0.0,0.0,93,0.00,,,0.00,TxWx,2013-10-25 08:42:00,
2013-10-25 03:47:00,28.7,26.0,30.52,NNE,32,0.0,0.0,93,0.00,,,0.00,TxWx,2013-10-25 08:47:00,
2013-10-25 03:52:00,28.7,26.0,30.53,NNE,32,0.0,0.0,93,0.00,,,0.00,TxWx,2013-10-25 08:52:00,
2013-10-25 03:57:00,28.7,26.0,30.53,NNE,32,0.0,0.0,93,0.00,,,0.00,TxWx,2013-10-25 08:57:00,
2013-10-25 04:02:00,28.7,26.0,30.53,NNE,32,0.0,0.0,93,0.00,,,0.00,TxWx,2013-10-25 09:02:00,
2013-10-25 04:07:00,28.6,26.0,30.53,NNE,32,0.0,0.0,93,0.00,,,0.00,TxWx,2013-10-25 09:07:00,
2013-10-25 04:13:00,28.6,26.0,30.53,NNE,32,0.0,0.0,93,0.00,,,0.00,TxWx,2013-10-25 09:13:00,
2013-10-25 04:18:00,28.5,26.0,30.53,NNE,32,0.0,0.0,93,0.00,,,0.00,TxWx,2013-10-25 09:18:00,
2013-10-25 04:23:00,28.5,26.0,30.53,NNE,32,0.0,0.0,93,0.00,,,0.00,TxWx,2013-10-25 09:23:00,
2013-10-25 04:28:00,28.4,25.0,30.53,NNE,32,0.0,0.0,93,0.00,,,0.00,TxWx,2013-10-25 09:28:00,
2013-10-25 04:33:00,28.4,25.0,30.54,NNE,32,0.0,0.0,93,0.00,,,0.00,TxWx,2013-10-25 09:33:00,
2013-10-25 04:38:00,28.3,25.0,30.54,NNE,32,0.0,0.0,93,0.00,,,0.00,TxWx,2013-10-25 09:38:00,
2013-10-25 04:43:00,28.4,25.0,30.54,NNE,32,0.0,0.0,94,0.00,,,0.00,TxWx,2013-10-25 09:43:00,
2013-10-25 04:48:00,28.4,25.0,30.54,NNE,32,0.0,0.0,94,0.00,,,0.00,TxWx,2013-10-25 09:48:00,
2013-10-25 04:53:00,28.3,25.0,30.54,NNE,32,0.0,0.0,94,0.00,,,0.00,TxWx,2013-10-25 09:53:00,
2013-10-25 04:58:00,28.4,25.0,30.54,NNE,32,0.0,0.0,94,0.00,,,0.00,TxWx,2013-10-25 09:58:00,
2013-10-25 05:03:00,28.4,25.0,30.54,NNE,32,0.0,0.0,94,0.00,,,0.00,TxWx,2013-10-25 10:03:00,
2013-10-25 05:08:00,28.3,25.0,30.54,NNE,32,0.0,0.0,94,0.00,,,0.00,TxWx,2013-10-25 10:08:00,
2013-10-25 05:13:00,28.3,25.0,30.55,NNE,32,0.0,0.0,94,0.00,,,0.00,TxWx,2013-10-25 10:13:00,
2013-10-25 05:18:00,28.3,25.0,30.55,NNE,32,0.0,0.0,94,0.00,,,0.00,TxWx,2013-10-25 10:18:00,
2013-10-25 05:23:00,28.3,25.0,30.55,NNE,32,0.0,0.0,94,0.00,,,0.00,TxWx,2013-10-25 10:23:00,
2013-10-25 05:28:00,28.3,25.0,30.55,NNE,32,0.0,0.0,94,0.00,,,0.00,TxWx,2013-10-25 10:28:00,
2013-10-25 05:33:00,28.3,25.0,30.55,NNE,32,0.0,0.0,94,0.00,,,0.00,TxWx,2013-10-25 10:33:00,
2013-10-25 05:38:00,28.2,25.0,30.55,NNE,32,0.0,0.0,94,0.00,,,0.00,TxWx,2013-10-25 10:38:00,
2013-10-25 05:43:00,28.1,25.0,30.54,NNE,32,0.0,0.0,94,0.00,,,0.00,TxWx,2013-10-25 10:43:00,
2013-10-25 05:48:00,28.2,25.0,30.54,NNE,32,0.0,0.0,94,0.00,,,0.00,TxWx,2013-10-25 10:48:00,
2013-10-25 05:53:00,28.2,25.0,30.53,NNE,32,0.0,0.0,94,0.00,,,0.00,TxWx,2013-10-25 10:53:00,
2013-10-25 05:58:00,28.2,25.0,30.53,NNE,32,0.0,0.0,94,0.00,,,0.00,TxWx,2013-10-25 10:58:00,
2013-10-25 06:03:00,28.2,25.0,30.54,NNE,32,0.0,0.0,94,0.00,,,0.00,TxWx,2013-10-25 11:03:00,
2013-10-25 06:08:00,28.2,25.0,30.54,NNE,32,0.0,0.0,94,0.00,,,0.00,TxWx,2013-10-25 11:08:00,
2013-10-25 06:13:00,28.3,25.0,30.54,NNE,32,0.0,0.0,94,0.00,,,0.00,TxWx,2013-10-25 11:13:00,
2013-10-25 06:18:00,28.3,25.0,30.54,NNE,32,0.0,0.0,94,0.00,,,0.00,TxWx,2013-10-25 11:18:00,
2013-10-25 06:23:00,28.4,25.0,30.54,NNE,32,0.0,0.0,94,0.00,,,0.00,TxWx,2013-10-25 11:23:00,
2013-10-25 06:28:00,28.4,25.0,30.54,NNE,32,0.0,0.0,94,0.00,,,0.00,TxWx,2013-10-25 11:28:00,
2013-10-25 06:33:00,28.5,25.0,30.54,NNE,32,0.0,0.0,94,0.00,,,0.00,TxWx,2013-10-25 11:33:00,
2013-10-25 06:38:00,28.5,25.0,30.53,NNE,32,0.0,0.0,94,0.00,,,0.00,TxWx,2013-10-25 11:38:00,
2013-10-25 06:43:00,28.4,25.0,30.53,NNE,32,0.0,0.0,94,0.00,,,0.00,TxWx,2013-10-25 11:43:00,
2013-10-25 06:49:00,28.4,25.0,30.52,NNE,32,0.0,0.0,94,0.00,,,0.00,TxWx,2013-10-25 11:49:00,
2013-10-25 06:54:00,28.3,25.0,30.53,NNE,32,0.0,0.0,94,0.00,,,0.00,TxWx,2013-10-25 11:54:00,
2013-10-25 06:59:00,28.1,25.0,30.53,NNE,32,0.0,0.0,94,0.00,,,0.00,TxWx,2013-10-25 11:59:00,
2013-10-25 07:04:00,28.1,25.0,30.53,NNE,32,0.0,0.0,94,0.00,,,0.00,TxWx,2013-10-25 12:04:00,
2013-10-25 07:09:00,28.0,25.0,30.52,NNE,32,0.0,0.0,94,0.00,,,0.00,TxWx,2013-10-25 12:09:00,
2013-10-25 07:14:00,28.0,25.0,30.52,NNE,32,0.0,0.0,94,0.00,,,0.00,TxWx,2013-10-25 12:14:00,
2013-10-25 07:19:00,27.9,25.0,30.52,NNE,32,0.0,0.0,94,0.00,,,0.00,TxWx,2013-10-25 12:19:00,
2013-10-25 07:24:00,27.9,25.0,30.52,NNE,32,0.0,0.0,94,0.00,,,0.00,TxWx,2013-10-25 12:24:00,
2013-10-25 07:29:00,27.8,25.0,30.52,NNE,32,0.0,0.0,94,0.00,,,0.00,TxWx,2013-10-25 12:29:00,
2013-10-25 07:34:00,27.8,25.0,30.51,NNE,32,0.0,0.0,94,0.00,,,0.00,TxWx,2013-10-25 12:34:00,
2013-10-25 07:39:00,27.7,25.0,30.51,NNE,32,0.0,0.0,94,0.00,,,0.00,TxWx,2013-10-25 12:39:00,
2013-10-25 07:44:00,27.7,25.0,30.51,NNE,32,0.0,0.0,94,0.00,,,0.00,TxWx,2013-10-25 12:44:00,
2013-10-25 07:49:00,27.6,25.0,30.51,NNE,32,0.0,0.0,94,0.00,,,0.00,TxWx,2013-10-25 12:49:00,
2013-10-25 07:54:00,27.6,25.0,30.51,NNE,32,0.0,0.0,94,0.00,,,0.00,TxWx,2013-10-25 12:54:00,
2013-10-25 07:59:00,27.6,25.0,30.51,NNE,32,0.0,0.0,94,0.00,,,0.00,TxWx,2013-10-25 12:59:00,
2013-10-25 08:04:00,27.6,25.0,30.51,NNE,32,0.0,0.0,94,0.00,,,0.00,TxWx,2013-10-25 13:04:00,
2013-10-25 08:09:00,27.7,25.0,30.52,NNE,32,0.0,0.0,94,0.00,,,0.00,TxWx,2013-10-25 13:09:00,
2013-10-25 08:14:00,27.7,26.0,30.52,NNE,32,0.0,0.0,95,0.00,,,0.00,TxWx,2013-10-25 13:14:00,
2013-10-25 08:19:00,27.9,26.0,30.52,NNE,32,0.0,0.0,95,0.00,,,0.00,TxWx,2013-10-25 13:19:00,
2013-10-25 08:24:00,28.0,26.0,30.52,NNE,32,0.0,0.0,95,0.00,,,0.00,TxWx,2013-10-25 13:24:00,
2013-10-25 08:29:00,28.2,26.0,30.53,NNE,32,0.0,0.0,95,0.00,,,0.00,TxWx,2013-10-25 13:29:00,
2013-10-25 08:34:00,28.4,26.0,30.53,NNE,32,0.0,0.0,96,0.00,,,0.00,TxWx,2013-10-25 13:34:00,
2013-10-25 08:39:00,28.6,27.0,30.53,NNE,32,0.6,1.9,96,0.00,,,0.00,TxWx,2013-10-25 13:39:00,
2013-10-25 08:44:00,28.9,27.0,30.53,NNE,32,0.0,0.0,96,0.00,,,0.00,TxWx,2013-10-25 13:44:00,
2013-10-25 08:49:00,29.3,27.0,30.53,NNE,32,0.0,1.2,96,0.00,,,0.00,TxWx,2013-10-25 13:49:00,
2013-10-25 08:54:00,29.7,28.0,30.53,NNE,32,0.0,1.9,97,0.00,,,0.00,TxWx,2013-10-25 13:54:00,
2013-10-25 08:59:00,30.2,28.0,30.53,NNE,32,0.6,1.2,97,0.00,,,0.00,TxWx,2013-10-25 13:59:00,
2013-10-25 09:04:00,30.8,29.0,30.54,SE,145,0.6,1.2,97,0.00,,,0.00,TxWx,2013-10-25 14:04:00,
2013-10-25 09:09:00,31.3,29.0,30.54,SW,235,1.2,1.9,96,0.00,,,0.00,TxWx,2013-10-25 14:09:00,
2013-10-25 09:14:00,31.9,30.0,30.54,SSW,212,3.1,6.2,96,0.00,,,0.00,TxWx,2013-10-25 14:14:00,
2013-10-25 09:20:00,32.7,31.0,30.53,West,280,1.9,2.5,95,0.00,,,0.00,TxWx,2013-10-25 14:20:00,
2013-10-25 09:25:00,33.4,30.0,30.53,West,280,1.9,3.1,93,0.00,,,0.00,TxWx,2013-10-25 14:25:00,
2013-10-25 09:30:00,34.3,31.0,30.53,West,280,1.2,1.9,92,0.00,,,0.00,TxWx,2013-10-25 14:30:00,
2013-10-25 09:35:00,35.0,32.0,30.53,South,190,1.2,3.7,90,0.00,,,0.00,TxWx,2013-10-25 14:35:00,
2013-10-25 09:40:00,35.9,32.0,30.53,WNW,302,0.6,1.9,86,0.00,,,0.00,TxWx,2013-10-25 14:40:00,
2013-10-25 09:45:00,37.0,32.0,30.53,SSW,212,2.5,3.7,83,0.00,,,0.00,TxWx,2013-10-25 14:45:00,
2013-10-25 09:50:00,38.2,32.0,30.53,WNW,302,2.5,3.1,79,0.00,,,0.00,TxWx,2013-10-25 14:50:00,
2013-10-25 09:55:00,38.8,33.0,30.53,West,280,1.9,3.1,78,0.00,,,0.00,TxWx,2013-10-25 14:55:00,
2013-10-25 10:00:00,39.5,32.0,30.53,NNW,347,2.5,4.3,77,0.00,,,0.00,TxWx,2013-10-25 15:00:00,
2013-10-25 10:05:00,40.0,33.0,30.53,WSW,257,3.1,4.3,75,0.00,,,0.00,TxWx,2013-10-25 15:05:00,
2013-10-25 10:10:00,40.8,32.0,30.52,WSW,257,1.9,3.1,72,0.00,,,0.00,TxWx,2013-10-25 15:10:00,
2013-10-25 10:15:00,41.4,31.0,30.52,WSW,257,3.1,4.3,69,0.00,,,0.00,TxWx,2013-10-25 15:15:00,
2013-10-25 10:20:00,42.0,32.0,30.52,SSW,212,1.2,2.5,68,0.00,,,0.00,TxWx,2013-10-25 15:20:00,
2013-10-25 10:25:00,42.7,32.0,30.52,SW,235,1.9,3.7,66,0.00,,,0.00,TxWx,2013-10-25 15:25:00,
2013-10-25 10:30:00,43.3,30.0,30.52,WSW,257,2.5,5.0,63,0.00,,,0.00,TxWx,2013-10-25 15:30:00,
2013-10-25 10:35:00,44.1,30.0,30.51,SW,235,2.5,4.3,61,0.00,,,0.00,TxWx,2013-10-25 15:35:00,
2013-10-25 10:40:00,44.7,33.0,30.51,WSW,257,2.5,3.7,62,0.00,,,0.00,TxWx,2013-10-25 15:40:00,
2013-10-25 10:45:00,45.5,32.0,30.51,WNW,302,3.1,8.7,59,0.00,,,0.00,TxWx,2013-10-25 15:45:00,
2013-10-25 10:50:00,46.2,32.0,30.51,West,280,1.2,9.3,58,0.00,,,0.00,TxWx,2013-10-25 15:50:00,
2013-10-25 10:55:00,46.9,32.0,30.51,SE,145,1.9,6.8,56,0.00,,,0.00,TxWx,2013-10-25 15:55:00,
2013-10-25 11:00:00,47.4,29.0,30.51,West,280,2.5,3.1,52,0.00,,,0.00,TxWx,2013-10-25 16:00:00,
2013-10-25 11:05:00,48.0,30.0,30.51,NW,325,2.5,9.3,53,0.00,,,0.00,TxWx,2013-10-25 16:05:00,
2013-10-25 11:11:00,48.3,30.0,30.50,WSW,257,2.5,4.3,51,0.00,,,0.00,TxWx,2013-10-25 16:11:00,
2013-10-25 11:16:00,48.7,30.0,30.50,SE,145,3.1,3.1,50,0.00,,,0.00,TxWx,2013-10-25 16:16:00,
2013-10-25 11:21:00,48.6,30.0,30.50,North,10,1.2,5.6,50,0.00,,,0.00,TxWx,2013-10-25 16:21:00,
2013-10-25 11:26:00,48.4,28.0,30.50,WSW,257,8.7,8.7,49,0.00,,,0.00,TxWx,2013-10-25 16:26:00,
2013-10-25 11:31:00,48.4,29.0,30.50,SW,235,1.2,2.5,49,0.00,,,0.00,TxWx,2013-10-25 16:31:00,
2013-10-25 11:36:00,48.5,30.0,30.50,SW,235,4.3,8.0,50,0.00,,,0.00,TxWx,2013-10-25 16:36:00,
2013-10-25 11:41:00,48.8,28.0,30.50,West,280,1.9,3.7,46,0.00,,,0.00,TxWx,2013-10-25 16:41:00,
2013-10-25 11:46:00,49.2,29.0,30.50,WSW,257,5.0,6.8,48,0.00,,,0.00,TxWx,2013-10-25 16:46:00,
2013-10-25 11:51:00,49.2,28.0,30.50,WSW,257,3.7,9.3,46,0.00,,,0.00,TxWx,2013-10-25 16:51:00,
2013-10-25 11:56:00,49.3,27.0,30.50,SW,235,3.1,4.3,44,0.00,,,0.00,TxWx,2013-10-25 16:56:00,
2013-10-25 12:01:00,49.4,28.0,30.49,West,280,3.1,5.6,45,0.00,,,0.00,TxWx,2013-10-25 17:01:00,
2013-10-25 12:06:00,49.4,26.0,30.49,SW,235,3.1,6.8,43,0.00,,,0.00,TxWx,2013-10-25 17:06:00,
2013-10-25 12:11:00,49.3,26.0,30.49,SW,235,2.5,6.8,43,0.00,,,0.00,TxWx,2013-10-25 17:11:00,
2013-10-25 12:16:00,49.5,27.0,30.49,South,190,2.5,4.3,43,0.00,,,0.00,TxWx,2013-10-25 17:16:00,
2013-10-25 12:21:00,50.1,28.0,30.48,WSW,257,6.2,6.2,44,0.00,,,0.00,TxWx,2013-10-25 17:21:00,
2013-10-25 12:26:00,49.9,27.0,30.48,WSW,257,2.5,10.5,42,0.00,,,0.00,TxWx,2013-10-25 17:26:00,
2013-10-25 12:31:00,50.1,26.0,30.48,WSW,257,5.6,11.1,42,0.00,,,0.00,TxWx,2013-10-25 17:31:00,
2013-10-25 12:36:00,50.2,26.0,30.48,WSW,257,1.9,4.3,41,0.00,,,0.00,TxWx,2013-10-25 17:36:00,
2013-10-25 12:41:00,50.4,26.0,30.47,WNW,302,3.1,7.4,40,0.00,,,0.00,TxWx,2013-10-25 17:41:00,
2013-10-25 12:46:00,50.7,26.0,30.47,East,100,1.9,3.7,40,0.00,,,0.00,TxWx,2013-10-25 17:46:00,
2013-10-25 12:51:00,51.1,26.0,30.46,ENE,77,3.1,6.2,40,0.00,,,0.00,TxWx,2013-10-25 17:51:00,
2013-10-25 12:56:00,51.0,27.0,30.46,WSW,257,3.1,5.6,41,0.00,,,0.00,TxWx,2013-10-25 17:56:00,
2013-10-25 13:02:00,51.1,27.0,30.46,WNW,302,2.5,7.4,41,0.00,,,0.00,TxWx,2013-10-25 18:02:00,
2013-10-25 13:07:00,51.4,26.0,30.45,SSE,167,1.9,5.6,40,0.00,,,0.00,TxWx,2013-10-25 18:07:00,
2013-10-25 13:12:00,51.3,26.0,30.45,SSW,212,2.5,9.3,39,0.00,,,0.00,TxWx,2013-10-25 18:12:00,
2013-10-25 13:17:00,51.7,28.0,30.45,South,190,1.9,6.8,41,0.00,,,0.00,TxWx,2013-10-25 18:17:00,
2013-10-25 13:22:00,51.7,26.0,30.45,South,190,2.5,5.6,38,0.00,,,0.00,TxWx,2013-10-25 18:22:00,
2013-10-25 13:27:00,51.9,26.0,30.44,SSW,212,2.5,8.0,39,0.00,,,0.00,TxWx,2013-10-25 18:27:00,
2013-10-25 13:32:00,51.9,26.0,30.44,SSE,167,3.1,5.6,38,0.00,,,0.00,TxWx,2013-10-25 18:32:00,
2013-10-25 13:37:00,52.1,26.0,30.44,WSW,257,3.1,3.7,38,0.00,,,0.00,TxWx,2013-10-25 18:37:00,
2013-10-25 13:42:00,52.0,26.0,30.43,SSW,212,4.3,5.0,39,0.00,,,0.00,TxWx,2013-10-25 18:42:00,
2013-10-25 13:47:00,52.2,26.0,30.43,SSW,212,2.5,7.4,38,0.00,,,0.00,TxWx,2013-10-25 18:47:00,
2013-10-25 13:52:00,52.3,26.0,30.43,South,190,5.6,11.1,38,0.00,,,0.00,TxWx,2013-10-25 18:52:00,
2013-10-25 13:57:00,52.6,27.0,30.42,SSW,212,3.1,4.3,38,0.00,,,0.00,TxWx,2013-10-25 18:57:00,
2013-10-25 14:02:00,52.9,27.0,30.42,West,280,3.1,3.1,38,0.00,,,0.00,TxWx,2013-10-25 19:02:00,
2013-10-25 14:07:00,53.0,27.0,30.41,NW,325,7.4,7.4,38,0.00,,,0.00,TxWx,2013-10-25 19:07:00,
2013-10-25 14:12:00,53.3,27.0,30.41,SE,145,1.2,4.3,38,0.00,,,0.00,TxWx,2013-10-25 19:12:00,
2013-10-25 14:17:00,53.1,26.0,30.41,WSW,257,5.6,5.6,37,0.00,,,0.00,TxWx,2013-10-25 19:17:00,
2013-10-25 14:22:00,53.0,26.0,30.40,WSW,257,3.1,3.7,36,0.00,,,0.00,TxWx,2013-10-25 19:22:00,
2013-10-25 14:27:00,53.0,25.0,30.40,ESE,122,1.9,3.1,36,0.00,,,0.00,TxWx,2013-10-25 19:27:00,
2013-10-25 14:32:00,53.2,26.0,30.40,WSW,257,5.0,10.5,36,0.00,,,0.00,TxWx,2013-10-25 19:32:00,
2013-10-25 14:37:00,53.3,26.0,30.40,WSW,257,4.3,9.9,37,0.00,,,0.00,TxWx,2013-10-25 19:37:00,
2013-10-25 14:42:00,53.4,25.0,30.40,WSW,257,3.1,6.2,35,0.00,,,0.00,TxWx,2013-10-25 19:42:00,
2013-10-25 14:47:00,53.7,27.0,30.40,SE,145,1.9,3.7,37,0.00,,,0.00,TxWx,2013-10-25 19:47:00,
2013-10-25 14:52:00,53.9,27.0,30.39,East,100,5.6,5.6,36,0.00,,,0.00,TxWx,2013-10-25 19:52:00,
2013-10-25 14:57:00,53.8,26.0,30.39,SSW,212,1.9,6.8,35,0.00,,,0.00,TxWx,2013-10-25 19:57:00,
2013-10-25 15:02:00,53.6,26.0,30.39,WNW,302,2.5,7.4,35,0.00,,,0.00,TxWx,2013-10-25 20:02:00,
2013-10-25 15:08:00,53.8,26.0,30.38,SW,235,1.2,4.3,35,0.00,,,0.00,TxWx,2013-10-25 20:08:00,
2013-10-25 15:13:00,53.9,27.0,30.38,NE,55,1.2,5.6,36,0.00,,,0.00,TxWx,2013-10-25 20:13:00,
2013-10-25 15:18:00,54.0,27.0,30.37,WSW,257,6.8,8.7,36,0.00,,,0.00,TxWx,2013-10-25 20:18:00,
2013-10-25 15:23:00,54.0,27.0,30.37,South,190,1.2,8.0,37,0.00,,,0.00,TxWx,2013-10-25 20:23:00,
2013-10-25 15:28:00,54.0,26.0,30.37,WSW,257,3.7,6.8,35,0.00,,,0.00,TxWx,2013-10-25 20:28:00,
2013-10-25 15:33:00,54.2,26.0,30.37,WSW,257,2.5,4.3,35,0.00,,,0.00,TxWx,2013-10-25 20:33:00,
2013-10-25 15:38:00,54.2,26.0,30.37,SW,235,3.1,3.7,36,0.00,,,0.00,TxWx,2013-10-25 20:38:00,
2013-10-25 15:43:00,54.1,26.0,30.36,SW,235,3.1,6.8,35,0.00,,,0.00,TxWx,2013-10-25 20:43:00,
2013-10-25 15:48:00,54.2,26.0,30.36,SSE,167,3.7,3.7,36,0.00,,,0.00,TxWx,2013-10-25 20:48:00,
2013-10-25 15:53:00,54.2,27.0,30.36,East,100,0.0,4.3,37,0.00,,,0.00,TxWx,2013-10-25 20:53:00,
2013-10-25 15:58:00,54.2,26.0,30.36,SW,235,3.1,7.4,35,0.00,,,0.00,TxWx,2013-10-25 20:58:00,
2013-10-25 16:03:00,54.1,27.0,30.35,SW,235,3.1,3.7,36,0.00,,,0.00,TxWx,2013-10-25 21:03:00,
2013-10-25 16:09:00,54.1,25.0,30.35,WSW,257,2.5,5.0,34,0.00,,,0.00,TxWx,2013-10-25 21:09:00,
2013-10-25 16:14:00,54.1,27.0,30.34,WNW,302,1.9,5.0,37,0.00,,,0.00,TxWx,2013-10-25 21:14:00,
2013-10-25 16:19:00,54.2,27.0,30.34,NW,325,3.1,5.0,36,0.00,,,0.00,TxWx,2013-10-25 21:19:00,
2013-10-25 16:24:00,54.2,27.0,30.34,West,280,3.1,3.1,37,0.00,,,0.00,TxWx,2013-10-25 21:24:00,
2013-10-25 16:29:00,54.3,28.0,30.33,SSE,167,2.5,6.8,38,0.00,,,0.00,TxWx,2013-10-25 21:29:00,
2013-10-25 16:34:00,54.1,27.0,30.33,SE,145,1.2,5.0,36,0.00,,,0.00,TxWx,2013-10-25 21:34:00,
2013-10-25 16:39:00,54.1,28.0,30.33,ENE,77,1.2,7.4,38,0.00,,,0.00,TxWx,2013-10-25 21:39:00,
2013-10-25 16:44:00,54.0,27.0,30.33,South,190,1.9,3.7,36,0.00,,,0.00,TxWx,2013-10-25 21:44:00,
2013-10-25 16:49:00,53.9,27.0,30.32,WSW,257,3.1,3.7,36,0.00,,,0.00,TxWx,2013-10-25 21:49:00,
2013-10-25 16:54:00,53.9,26.0,30.32,SSE,167,1.9,3.7,36,0.00,,,0.00,TxWx,2013-10-25 21:54:00,
2013-10-25 16:59:00,53.9,27.0,30.32,South,190,3.7,4.3,36,0.00,,,0.00,TxWx,2013-10-25 21:59:00,
2013-10-25 17:04:00,53.8,27.0,30.31,South,190,1.9,3.1,37,0.00,,,0.00,TxWx,2013-10-25 22:04:00,
2013-10-25 17:09:00,53.7,27.0,30.31,SW,235,3.1,5.0,36,0.00,,,0.00,TxWx,2013-10-25 22:09:00,
2013-10-25 17:14:00,53.6,27.0,30.31,SSE,167,2.5,4.3,37,0.00,,,0.00,TxWx,2013-10-25 22:14:00,
2013-10-25 17:19:00,53.5,26.0,30.31,SW,235,1.2,5.0,36,0.00,,,0.00,TxWx,2013-10-25 22:19:00,
2013-10-25 17:24:00,53.3,26.0,30.30,SSE,167,1.2,4.3,37,0.00,,,0.00,TxWx,2013-10-25 22:24:00,
2013-10-25 17:29:00,53.3,26.0,30.30,WSW,257,1.9,2.5,37,0.00,,,0.00,TxWx,2013-10-25 22:29:00,
2013-10-25 17:34:00,53.0,26.0,30.30,SE,145,2.5,6.2,37,0.00,,,0.00,TxWx,2013-10-25 22:34:00,
2013-10-25 17:39:00,52.9,26.0,30.30,WSW,257,2.5,3.7,37,0.00,,,0.00,TxWx,2013-10-25 22:39:00,
2013-10-25 17:44:00,52.7,27.0,30.30,West,280,1.2,1.9,38,0.00,,,0.00,TxWx,2013-10-25 22:44:00,
2013-10-25 17:50:00,52.3,27.0,30.30,SW,235,1.2,3.1,39,0.00,,,0.00,TxWx,2013-10-25 22:50:00,
2013-10-25 17:55:00,52.2,26.0,30.30,SW,235,1.2,1.9,39,0.00,,,0.00,TxWx,2013-10-25 22:55:00,
2013-10-25 18:00:00,52.1,26.0,30.30,SSE,167,2.5,3.7,38,0.00,,,0.00,TxWx,2013-10-25 23:00:00,
2013-10-25 18:05:00,51.9,27.0,30.29,WNW,302,0.6,2.5,40,0.00,,,0.00,TxWx,2013-10-25 23:05:00,
2013-10-25 18:10:00,51.7,26.0,30.29,WNW,302,1.2,3.1,39,0.00,,,0.00,TxWx,2013-10-25 23:10:00,
2013-10-25 18:15:00,51.5,27.0,30.29,East,100,0.6,5.0,39,0.00,,,0.00,TxWx,2013-10-25 23:15:00,
2013-10-25 18:20:00,51.2,26.0,30.29,SW,235,1.2,1.9,40,0.00,,,0.00,TxWx,2013-10-25 23:20:00,
2013-10-25 18:25:00,51.1,26.0,30.29,WSW,257,3.1,4.3,40,0.00,,,0.00,TxWx,2013-10-25 23:25:00,
2013-10-25 18:30:00,50.9,27.0,30.29,NNW,347,0.6,2.5,41,0.00,,,0.00,TxWx,2013-10-25 23:30:00,
2013-10-25 18:35:00,50.5,27.0,30.29,WNW,302,0.6,2.5,41,0.00,,,0.00,TxWx,2013-10-25 23:35:00,
2013-10-25 18:40:00,50.4,26.0,30.28,SSW,212,1.9,1.9,41,0.00,,,0.00,TxWx,2013-10-25 23:40:00,
2013-10-25 18:45:00,50.3,26.0,30.28,WSW,257,1.2,3.1,41,0.00,,,0.00,TxWx,2013-10-25 23:45:00,
2013-10-25 18:50:00,50.2,27.0,30.28,ENE,77,0.6,1.2,42,0.00,,,0.00,TxWx,2013-10-25 23:50:00,
2013-10-25 18:55:00,50.1,26.0,30.28,NNE,32,0.0,1.2,42,0.00,,,0.00,TxWx,2013-10-25 23:55:00,
2013-10-25 19:00:00,49.9,27.0,30.28,NNW,347,0.0,0.6,43,0.00,,,0.00,TxWx,2013-10-26 00:00:00,
2013-10-25 19:05:00,49.7,27.0,30.28,ESE,122,0.6,1.2,43,0.00,,,0.00,TxWx,2013-10-26 00:05:00,
2013-10-25 19:10:00,49.5,28.0,30.28,NNW,347,0.6,2.5,44,0.00,,,0.00,TxWx,2013-10-26 00:10:00,
2013-10-25 19:15:00,49.4,27.0,30.27,NNW,347,0.6,1.2,44,0.00,,,0.00,TxWx,2013-10-26 00:15:00,
2013-10-25 19:20:00,49.0,27.0,30.27,WSW,257,0.6,3.7,45,0.00,,,0.00,TxWx,2013-10-26 00:20:00,
2013-10-25 19:25:00,48.7,28.0,30.27,SW,235,0.6,1.2,47,0.00,,,0.00,TxWx,2013-10-26 00:25:00,
2013-10-25 19:30:00,48.5,27.0,30.27,NNW,347,0.0,0.6,46,0.00,,,0.00,TxWx,2013-10-26 00:30:00,
2013-10-25 19:35:00,48.2,27.0,30.27,ESE,122,0.6,0.6,45,0.00,,,0.00,TxWx,2013-10-26 00:35:00,
2013-10-25 19:41:00,48.0,28.0,30.27,ENE,77,0.0,0.6,47,0.00,,,0.00,TxWx,2013-10-26 00:41:00,
2013-10-25 19:46:00,47.8,27.0,30.27,NNE,32,0.0,0.6,46,0.00,,,0.00,TxWx,2013-10-26 00:46:00,
2013-10-25 19:51:00,47.6,27.0,30.27,NNE,32,0.0,1.2,46,0.00,,,0.00,TxWx,2013-10-26 00:51:00,
2013-10-25 19:56:00,47.4,27.0,30.27,East,100,0.0,0.6,47,0.00,,,0.00,TxWx,2013-10-26 00:56:00,
2013-10-25 20:01:00,47.2,27.0,30.27,WSW,257,0.6,0.6,48,0.00,,,0.00,TxWx,2013-10-26 01:01:00,
2013-10-25 20:06:00,47.0,27.0,30.26,NNE,32,0.0,0.6,48,0.00,,,0.00,TxWx,2013-10-26 01:06:00,
2013-10-25 20:11:00,46.6,28.0,30.26,ENE,77,0.0,1.2,50,0.00,,,0.00,TxWx,2013-10-26 01:11:00,
2013-10-25 20:16:00,46.3,27.0,30.26,NE,55,0.0,0.0,49,0.00,,,0.00,TxWx,2013-10-26 01:16:00,
2013-10-25 20:21:00,46.1,28.0,30.26,NE,55,0.0,0.6,51,0.00,,,0.00,TxWx,2013-10-26 01:21:00,
2013-10-25 20:26:00,45.8,28.0,30.26,East,100,0.6,0.6,51,0.00,,,0.00,TxWx,2013-10-26 01:26:00,
2013-10-25 20:31:00,45.6,28.0,30.25,SSE,167,1.2,1.2,51,0.00,,,0.00,TxWx,2013-10-26 01:31:00,
2013-10-25 20:36:00,45.5,28.0,30.25,ESE,122,0.6,0.6,51,0.00,,,0.00,TxWx,2013-10-26 01:36:00,
2013-10-25 20:41:00,45.4,26.0,30.25,East,100,1.2,1.2,50,0.00,,,0.00,TxWx,2013-10-26 01:41:00,
2013-10-25 20:46:00,45.2,27.0,30.25,ENE,77,0.0,1.2,51,0.00,,,0.00,TxWx,2013-10-26 01:46:00,
2013-10-25 20:51:00,45.1,27.0,30.25,SSW,212,0.6,0.6,51,0.00,,,0.00,TxWx,2013-10-26 01:51:00,
2013-10-25 20:56:00,45.1,27.0,30.25,NNE,32,0.0,0.6,51,0.00,,,0.00,TxWx,2013-10-26 01:56:00,
2013-10-25 21:01:00,45.0,27.0,30.25,South,190,0.6,0.6,51,0.00,,,0.00,TxWx,2013-10-26 02:01:00,
2013-10-25 21:06:00,44.9,27.0,30.25,NE,55,0.0,1.2,52,0.00,,,0.00,TxWx,2013-10-26 02:06:00,
2013-10-25 21:11:00,44.9,28.0,30.25,NE,55,0.6,0.6,53,0.00,,,0.00,TxWx,2013-10-26 02:11:00,
2013-10-25 21:16:00,44.8,28.0,30.25,NE,55,0.0,0.6,53,0.00,,,0.00,TxWx,2013-10-26 02:16:00,
2013-10-25 21:21:00,44.8,28.0,30.25,NNW,347,0.0,3.7,54,0.00,,,0.00,TxWx,2013-10-26 02:21:00,
2013-10-25 21:27:00,44.8,28.0,30.25,SW,235,0.6,1.9,54,0.00,,,0.00,TxWx,2013-10-26 02:27:00,
2013-10-25 21:32:00,44.8,28.0,30.25,SE,145,1.2,1.2,54,0.00,,,0.00,TxWx,2013-10-26 02:32:00,
2013-10-25 21:37:00,44.8,28.0,30.25,NNE,32,0.6,1.2,53,0.00,,,0.00,TxWx,2013-10-26 02:37:00,
2013-10-25 21:42:00,44.9,28.0,30.25,NE,55,0.6,0.6,53,0.00,,,0.00,TxWx,2013-10-26 02:42:00,
2013-10-25 21:47:00,44.9,28.0,30.25,NE,55,0.0,0.6,54,0.00,,,0.00,TxWx,2013-10-26 02:47:00,
2013-10-25 21:52:00,45.0,28.0,30.25,ENE,77,0.6,0.6,53,0.00,,,0.00,TxWx,2013-10-26 02:52:00,
2013-10-25 21:57:00,45.0,28.0,30.25,East,100,0.0,1.2,53,0.00,,,0.00,TxWx,2013-10-26 02:57:00,
2013-10-25 22:02:00,45.1,28.0,30.25,NW,325,0.6,0.6,53,0.00,,,0.00,TxWx,2013-10-26 03:02:00,
2013-10-25 22:07:00,45.1,29.0,30.25,South,190,1.9,1.9,56,0.00,,,0.00,TxWx,2013-10-26 03:07:00,
2013-10-25 22:12:00,44.9,29.0,30.25,NW,325,0.6,1.2,56,0.00,,,0.00,TxWx,2013-10-26 03:12:00,
2013-10-25 22:17:00,44.9,28.0,30.25,WSW,257,0.6,1.2,54,0.00,,,0.00,TxWx,2013-10-26 03:17:00,
2013-10-25 22:22:00,44.9,29.0,30.25,North,10,0.0,1.2,56,0.00,,,0.00,TxWx,2013-10-26 03:22:00,
2013-10-25 22:27:00,44.9,29.0,30.25,SSW,212,1.2,1.2,55,0.00,,,0.00,TxWx,2013-10-26 03:27:00,
2013-10-25 22:32:00,45.0,28.0,30.25,WNW,302,0.6,1.9,54,0.00,,,0.00,TxWx,2013-10-26 03:32:00,
2013-10-25 22:37:00,45.1,28.0,30.25,NW,325,1.9,2.5,54,0.00,,,0.00,TxWx,2013-10-26 03:37:00,
2013-10-25 22:42:00,45.2,29.0,30.25,WSW,257,0.6,2.5,55,0.00,,,0.00,TxWx,2013-10-26 03:42:00,
2013-10-25 22:47:00,45.3,29.0,30.25,WSW,257,1.2,1.9,55,0.00,,,0.00,TxWx,2013-10-26 03:47:00,
2013-10-25 22:52:00,45.4,28.0,30.25,West,280,1.2,2.5,54,0.00,,,0.00,TxWx,2013-10-26 03:52:00,
2013-10-25 22:57:00,45.7,29.0,30.25,SW,235,1.2,2.5,54,0.00,,,0.00,TxWx,2013-10-26 03:57:00,
2013-10-25 23:01:00,45.8,29.0,30.25,WNW,302,1.2,3.1,55,0.00,,,0.00,TxWx,2013-10-26 04:01:00,
2013-10-25 23:02:00,45.9,29.0,30.25,WSW,257,1.9,2.5,55,0.00,,,0.00,TxWx,2013-10-26 04:02:00,
2013-10-25 23:03:00,45.9,29.0,30.25,WNW,302,1.9,1.9,55,0.00,,,0.00,TxWx,2013-10-26 04:03:00,
2013-10-25 23:05:00,46.0,29.0,30.25,SW,235,3.1,4.3,55,0.00,,,0.00,TxWx,2013-10-26 04:05:00,
2013-10-25 23:06:00,46.0,29.0,30.25,SSW,212,1.2,4.3,55,0.00,,,0.00,TxWx,2013-10-26 04:06:00,
2013-10-25 23:12:00,46.2,29.0,30.25,North,10,0.0,1.2,55,0.00,,,0.00,TxWx,2013-10-26 04:12:00,
2013-10-25 23:14:00,46.2,29.0,30.25,WNW,302,0.6,0.6,54,0.00,,,0.00,TxWx,2013-10-26 04:14:00,
2013-10-25 23:19:00,46.3,29.0,30.24,SSW,212,1.2,3.7,54,0.00,,,0.00,TxWx,2013-10-26 04:19:00,
2013-10-25 23:24:00,46.5,30.0,30.24,WSW,257,1.2,2.5,55,0.00,,,0.00,TxWx,2013-10-26 04:24:00,
2013-10-25 23:29:00,46.6,30.0,30.24,WSW,257,2.5,5.0,54,0.00,,,0.00,TxWx,2013-10-26 04:29:00,
2013-10-25 23:34:00,46.7,30.0,30.24,SSW,212,1.2,2.5,55,0.00,,,0.00,TxWx,2013-10-26 04:34:00,
2013-10-25 23:39:00,46.8,30.0,30.23,SSW,212,1.9,3.1,55,0.00,,,0.00,TxWx,2013-10-26 04:39:00,
2013-10-25 23:44:00,46.9,30.0,30.23,SSW,212,3.7,6.2,55,0.00,,,0.00,TxWx,2013-10-26 04:44:00,
2013-10-25 23:49:00,47.0,31.0,30.23,South,190,1.2,7.4,55,0.00,,,0.00,TxWx,2013-10-26 04:49:00,
2013-10-25 23:54:00,46.9,31.0,30.23,NNE,32,0.6,5.6,56,0.00,,,0.00,TxWx,2013-10-26 04:54:00,
2013-10-25 23:59:00,46.7,32.0,30.23,WSW,257,1.9,8.7,56,0.00,,,0.00,TxWx,2013-10-26 04:59:00,